[[{"header":{"parameterUnit":"m.s-1","parameterCategory":1,"la1":30.2991,"la2":30.254,"lo1":-89.0895,"lo2":-89.0444,"dy":0.0017,"dx":0.0017,"nx":28,"ny":28,"refTime":"2025-06-14T09:00:00:Z","depth":0,"parameterNumber":2,"parameterNumberName":"U-component_of_WINDS"},"data":[0,0,0,0,0,0,0,0,0,0,0,0,0,0,0,0,0,0,0,0,0,0,0,0,0,0,0,0,0,0,0,0,0,0,0,0,0,0,0,0,0,0,0,0,0,0,0,0,0,0,0,0,0,0,0,0,0,0,0.165,0.165,0,0.1688,0.1688,0.1688,0.169,0.169,0.169,0.1689,0.1728,0.1729,0.1731,0,0,0,0,0,0,0,0,0,0,0,0,0,0.158,0.1581,0.165,0.1651,0.1651,0.1687,0.1688,0.1689,0.1691,0.169,0.169,0.1689,0.1728,0.1729,0.1731,0,0,0,0,0,0,0,0,0,0,0,0,0,0.1613,0.1582,0.165,0.1656,0.1657,0.1687,0.1688,0.1689,0.1691,0.169,0.1689,0.1689,0.1727,0.1729,0.1731,0.1758,0,0,0.1738,0.1739,0,0,0,0,0,0,0,0,0.1611,0.1616,0.1655,0.1656,0.1657,0.1684,0.1677,0.1712,0.1691,0.1678,0.1689,0.1688,0.1714,0.1717,0.1726,0.1759,0.1761,0.1738,0.1739,0.174,0.1741,0,0,0,0,0,0,0,0.1609,0.1614,0.1665,0.1656,0.1657,0.1657,0.1661,0.1684,0.1699,0.1679,0.1679,0.1684,0.1714,0.1723,0.1726,0.1762,0.1738,0.174,0.1741,0.1742,0.1818,0.1819,0,0,0,0,0,0,0.1605,0.1612,0.1664,0.1666,0.1632,0.1659,0.1664,0.1676,0.1699,0.1702,0.1684,0.1684,0.172,0.1724,0.1728,0.176,0.174,0.1742,0.1744,0.1818,0.1818,0.1819,0,0,0,0,0,0,0.1604,0.161,0.1662,0.1639,0.1646,0.1661,0.1675,0.1677,0.1686,0.1703,0.1705,0.1691,0.172,0.1725,0.175,0.1761,0.1743,0.1745,0.1817,0.1818,0.1819,0.1824,0,0,0,0,0,0,0.1602,0.1609,0.162,0.1639,0.1647,0.1684,0.1675,0.1678,0.169,0.1689,0.171,0.1712,0.172,0.1747,0.1752,0.1764,0.1747,0.1816,0.1817,0.1818,0.1823,0.1825,0.1827,0,0,0,0,0,0.1599,0.162,0.162,0.1626,0.166,0.1684,0.1689,0.1697,0.1691,0.1701,0.1712,0.1712,0.1759,0.1749,0.1755,0.1768,0.1815,0.1817,0.1818,0.1822,0.1825,0.1827,0,0,0,0,0,0,0.1602,0.1623,0.1623,0.1651,0.1666,0.1685,0.1698,0.1699,0.1716,0.1715,0.1724,0.1729,0.1754,0.1763,0.1752,0.1794,0.1786,0.1789,0.1787,0.179,0.1792,0.1789,0.1749,0,0,0,0,0,0.1605,0.1623,0.1641,0.1663,0.1671,0.1683,0.1694,0.1698,0.1714,0.1721,0.1733,0.1749,0.1767,0.1779,0.1797,0.1824,0.1829,0.1836,0.1838,0.184,0.1842,0.1857,0.1861,0.1825,0.1825,0.1825,0,0,0.1613,0.1627,0.1638,0.1664,0.1676,0.1694,0.1688,0.1708,0.1722,0.1724,0.1748,0.1758,0.1776,0.1802,0.1814,0.1811,0.1853,0.1842,0.1843,0.1845,0.1859,0.1863,0.1866,0.1826,0.1826,0.1825,0,0,0.1637,0.1649,0.1669,0.1681,0.1699,0.1707,0.1712,0.1731,0.1737,0.1762,0.1763,0.178,0.1811,0.1824,0.1834,0.1861,0.1862,0.1867,0.1878,0.1892,0.1895,0.1898,0.1908,0.1911,0.1869,0.1869,0.1869,0,0.1644,0.1672,0.1679,0.1699,0.171,0.1712,0.1733,0.1744,0.1767,0.1775,0.1771,0.181,0.1822,0.1851,0.1857,0.1866,0.1871,0.1865,0.1894,0.1897,0.1899,0.1909,0.1912,0.187,0.187,0.187,0.187,0,0.168,0.1699,0.1713,0.1735,0.1748,0.1768,0.1778,0.179,0.1793,0.1801,0.1826,0.1841,0.1861,0.1868,0.1872,0.1898,0.1895,0.1892,0.1885,0.1903,0.1912,0.1916,0.187,0.187,0.187,0.187,0,0,0.1707,0.1732,0.1737,0.1747,0.1767,0.1782,0.1801,0.1821,0.1831,0.1847,0.1864,0.189,0.1887,0.1899,0.1903,0.1916,0.1937,0.1912,0.1912,0.1916,0.1966,0.1968,0.1972,0.1937,0.1938,0.1938,0.1965,0,0.1733,0.1768,0.1775,0.1805,0.1823,0.1825,0.1842,0.1856,0.1864,0.1879,0.1888,0.1907,0.1902,0.1909,0.1921,0.1931,0.1947,0.193,0.1953,0.1953,0.1949,0.1977,0.198,0.2004,0.1968,0.1969,0.1969,0,0.1768,0.1784,0.1817,0.1834,0.1841,0.1856,0.1875,0.189,0.1905,0.191,0.1923,0.1926,0.1946,0.1937,0.1965,0.1953,0.1963,0.1969,0.197,0.1973,0.1963,0.1981,0.2012,0.2016,0.1975,0.1974,0.1974,0,0.1785,0.1814,0.1837,0.1846,0.1866,0.1877,0.1886,0.1901,0.1912,0.1928,0.1935,0.1953,0.1963,0.1977,0.1985,0.1978,0.2012,0.2004,0.2017,0.2017,0.2025,0.2024,0.2058,0.2031,0.203,0.203,0.203,0,0.1813,0.1833,0.1845,0.1859,0.1881,0.1888,0.191,0.1918,0.1931,0.1947,0.195,0.1965,0.1974,0.199,0.1996,0.2018,0.2023,0.2027,0.2029,0.2027,0.2027,0.2034,0.2033,0.2031,0.2031,0.2031,0.2031,0,0.1835,0.1844,0.187,0.1887,0.1891,0.1907,0.1921,0.1935,0.1942,0.1962,0.1967,0.1979,0.1998,0.2007,0.2031,0.2035,0.206,0.206,0.2055,0.2056,0.2068,0.2067,0.2108,0.2114,0.2082,0.2083,0.2083,0,0.1853,0.1868,0.1887,0.1897,0.1906,0.1924,0.1935,0.1942,0.1954,0.1973,0.1984,0.2003,0.2019,0.2049,0.206,0.2077,0.2078,0.2091,0.2081,0.2079,0.2079,0.2078,0.2079,0.2093,0.2094,0.2094,0.2094,0,0.1883,0.1887,0.1903,0.1921,0.1935,0.1949,0.1963,0.1972,0.1981,0.1994,0.2013,0.2025,0.2049,0.2068,0.2086,0.2095,0.2097,0.2097,0.2101,0.21,0.2096,0.2099,0.206,0.2096,0.2096,0.2096,0.2096,0.2096,0.1904,0.1917,0.1932,0.195,0.1962,0.1975,0.1988,0.1997,0.2013,0.2033,0.2036,0.2057,0.2072,0.2096,0.2106,0.2122,0.2119,0.2125,0.2127,0.2128,0.2129,0.2093,0.2126,0.2125,0.2125,0.2125,0.2125,0,0.1935,0.1944,0.1961,0.198,0.1994,0.1993,0.2009,0.2021,0.2038,0.2052,0.2067,0.2089,0.2107,0.2119,0.2137,0.2148,0.2149,0.2152,0.2152,0.2154,0.213,0.2125,0.2151,0.2151,0.2151,0.2151,0.2151,0.2151,0.1952,0.1975,0.198,0.2008,0.2017,0.2037,0.2046,0.2058,0.2069,0.2093,0.2108,0.2115,0.2128,0.2147,0.2164,0.2167,0.2173,0.2177,0.218,0.2158,0.2155,0.2153,0.2148,0.2178,0.2179,0.2202,0.2203,0.2203]},{"header":{"parameterUnit":"m.s-1","parameterCategory":1,"la1":30.2991,"la2":30.254,"lo1":-89.0895,"lo2":-89.0444,"dy":0.0017,"dx":0.0017,"nx":28,"ny":28,"refTime":"2025-06-14T09:00:00:Z","depth":0,"parameterNumber":3,"parameterNumberName":"V-component_of_WINDS"},"data":[0,0,0,0,0,0,0,0,0,0,0,0,0,0,0,0,0,0,0,0,0,0,0,0,0,0,0,0,0,0,0,0,0,0,0,0,0,0,0,0,0,0,0,0,0,0,0,0,0,0,0,0,0,0,0,0,0,0,6.1929,6.193,0,6.203,6.2031,6.2032,6.1998,6.1996,6.1994,6.1992,6.2085,6.2089,6.2094,0,0,0,0,0,0,0,0,0,0,0,0,0,6.1699,6.1703,6.1929,6.1931,6.1932,6.203,6.2031,6.2032,6.1999,6.1996,6.1993,6.1991,6.2083,6.2089,6.2094,0,0,0,0,0,0,0,0,0,0,0,0,0,6.1799,6.1705,6.1929,6.1927,6.1928,6.2029,6.2031,6.2033,6.1999,6.1996,6.1993,6.199,6.2082,6.2088,6.2095,6.2201,0,0,6.2115,6.2118,0,0,0,0,0,0,0,0,6.1793,6.1807,6.1926,6.1927,6.1928,6.1998,6.1984,6.2089,6.2,6.1972,6.1992,6.1988,6.2058,6.2067,6.2092,6.2206,6.221,6.2116,6.212,6.2123,6.2125,0,0,0,0,0,0,0,6.1786,6.1803,6.1969,6.1928,6.1929,6.1918,6.1929,6.2004,6.2031,6.1974,6.1972,6.1985,6.2058,6.2086,6.2094,6.2211,6.2116,6.2122,6.2126,6.2129,6.2417,6.242,0,0,0,0,0,0,6.178,6.1797,6.1965,6.1972,6.1852,6.1925,6.1937,6.1979,6.2031,6.2036,6.1987,6.1983,6.2076,6.2086,6.2097,6.2226,6.2123,6.2129,6.2133,6.2413,6.2418,6.2422,0,0,0,0,0,0,6.1775,6.1795,6.1961,6.1884,6.1904,6.1932,6.198,6.1983,6.2011,6.2041,6.2045,6.2011,6.2074,6.2088,6.2176,6.2228,6.2132,6.2138,6.2409,6.2415,6.242,6.2483,0,0,0,0,0,0,6.1769,6.1794,6.1837,6.1885,6.1909,6.2042,6.1983,6.1987,6.2023,6.2018,6.2064,6.2069,6.2072,6.2167,6.2183,6.2236,6.2144,6.2405,6.2412,6.2418,6.2477,6.249,6.2502,0,0,0,0,0,6.1761,6.1848,6.1839,6.186,6.1963,6.2045,6.2058,6.2063,6.2028,6.207,6.2089,6.2067,6.222,6.2176,6.2194,6.225,6.2401,6.241,6.2418,6.2471,6.2488,6.2502,0,0,0,0,0,0,6.1801,6.1854,6.1845,6.1952,6.1995,6.2039,6.2092,6.208,6.2131,6.2124,6.2125,6.2136,6.2227,6.2247,6.2197,6.2356,6.2305,6.2317,6.2339,6.2355,6.2368,6.2361,6.2149,0,0,0,0,0,6.1823,6.1888,6.193,6.202,6.2042,6.2064,6.2099,6.21,6.2143,6.216,6.2186,6.2226,6.2283,6.232,6.2374,6.248,6.2488,6.2527,6.2539,6.255,6.256,6.2617,6.2634,6.2448,6.2448,6.2448,0,0,6.1867,6.1905,6.1945,6.2029,6.2062,6.2127,6.2079,6.2149,6.2196,6.2169,6.2256,6.2277,6.2321,6.2419,6.2463,6.2438,6.2613,6.256,6.2568,6.2573,6.2627,6.2644,6.266,6.2454,6.2453,6.2452,0,0,6.1982,6.2018,6.2097,6.2132,6.2185,6.2199,6.2218,6.2265,6.2279,6.2367,6.2348,6.2403,6.2501,6.2534,6.2563,6.2693,6.2674,6.271,6.2775,6.2831,6.2845,6.2858,6.2904,6.292,6.272,6.272,6.272,0,6.203,6.213,6.2138,6.2211,6.2248,6.2231,6.2309,6.2342,6.2408,6.2432,6.2405,6.2529,6.2557,6.2663,6.2695,6.2719,6.2739,6.2704,6.2843,6.2856,6.2868,6.2912,6.2929,6.2724,6.2724,6.2723,6.2723,0,6.2186,6.2256,6.2313,6.2382,6.2425,6.25,6.2517,6.2559,6.2556,6.2572,6.2661,6.2695,6.2757,6.2782,6.2778,6.2886,6.287,6.2843,6.2792,6.289,6.2931,6.2948,6.273,6.2728,6.2727,6.2726,0,0,6.2327,6.2402,6.2423,6.2454,6.2512,6.2564,6.2637,6.2701,6.2737,6.2783,6.2844,6.2928,6.2905,6.2938,6.2938,6.2987,6.3087,6.2954,6.2955,6.2977,6.3208,6.3228,6.3247,6.3075,6.3078,6.3081,6.3204,0,6.2446,6.2581,6.2591,6.271,6.2774,6.2759,6.2823,6.2864,6.2881,6.2935,6.2952,6.3013,6.2977,6.2997,6.3045,6.3065,6.3133,6.3056,6.3129,6.3132,6.3119,6.3268,6.3289,6.3404,6.322,6.3223,6.3225,0,6.2603,6.2659,6.2786,6.2836,6.2863,6.2921,6.298,6.3033,6.3078,6.3087,6.3126,6.312,6.3193,6.314,6.324,6.3188,6.3218,6.3232,6.3237,6.3243,6.3184,6.3278,6.3441,6.3458,6.325,6.3248,6.3246,0,6.2693,6.2799,6.289,6.2917,6.2977,6.3018,6.3045,6.3087,6.3125,6.3176,6.32,6.3257,6.3288,6.3332,6.334,6.3301,6.344,6.3388,6.3447,6.3447,6.3476,6.3474,6.3645,6.3497,6.3497,6.3496,6.3496,0,6.2825,6.2903,6.2931,6.2987,6.3073,6.3083,6.3167,6.3191,6.3229,6.3286,6.3276,6.3329,6.3337,6.3392,6.3398,6.348,6.3493,6.3501,6.3502,6.3502,6.3501,6.3521,6.3513,6.3501,6.35,6.3499,6.3498,0,6.294,6.2962,6.3059,6.311,6.3125,6.3186,6.3228,6.328,6.3297,6.337,6.3387,6.3412,6.3476,6.349,6.3564,6.3568,6.3665,6.3658,6.3651,6.365,6.3709,6.3703,6.3899,6.3925,6.376,6.3761,6.3763,0,6.3022,6.3083,6.3141,6.3181,6.3211,6.3274,6.3314,6.3326,6.3367,6.3424,6.3469,6.3532,6.3584,6.3686,6.3709,6.3766,6.376,6.3825,6.3768,6.3767,6.376,6.3757,6.3762,6.3835,6.3837,6.3838,6.3839,0,6.3166,6.3175,6.3235,6.3299,6.3348,6.3398,6.3445,6.3477,6.3495,6.3541,6.3609,6.3649,6.3728,6.379,6.3848,6.3871,6.3858,6.3857,6.3874,6.3874,6.3868,6.3872,6.368,6.3852,6.3851,6.385,6.3849,6.3849,6.3267,6.332,6.3371,6.3438,6.3476,6.3521,6.3573,6.3598,6.3656,6.3723,6.3725,6.3799,6.3842,6.3918,6.3946,6.4001,6.398,6.4005,6.4011,6.4016,6.4022,6.386,6.4011,6.4011,6.4011,6.4011,6.401,0,6.341,6.3443,6.3504,6.3574,6.3626,6.3613,6.3665,6.3709,6.3775,6.3818,6.3871,6.3948,6.4009,6.4038,6.4098,6.4137,6.4132,6.4152,6.4149,6.4154,6.4037,6.4017,6.4155,6.4155,6.4155,6.4155,6.4155,6.4155,6.3491,6.3581,6.3596,6.3704,6.3735,6.381,6.3841,6.3882,6.3917,6.4005,6.4058,6.4078,6.4115,6.4177,6.4232,6.4239,6.4261,6.4284,6.4288,6.4177,6.4163,6.4148,6.4129,6.4289,6.4289,6.44,6.4401,6.4402]}]]